Time,TemperatureF,DewpointF,PressureIn,WindDirection,WindDirectionDegrees,WindSpeedMPH,WindSpeedGustMPH,Humidity,HourlyPrecipIn,Conditions,Clouds,dailyrainin,SoftwareType,DateUTC
2013-06-17 00:01:00,78.0,76.5,30.08,ESE,112,2.0,4.0,95,0.00,,---,0.00,VWS V14.01,2013-06-17 04:01:00,
2013-06-17 00:02:00,78.0,76.5,30.08,ESE,112,4.0,4.0,95,0.00,,---,0.00,VWS V14.01,2013-06-17 04:02:00,
2013-06-17 00:03:00,78.0,76.5,30.09,ESE,112,3.0,6.0,95,0.00,,---,0.00,VWS V14.01,2013-06-17 04:03:00,
2013-06-17 00:04:00,78.0,76.5,30.09,ESE,112,0.0,3.0,95,0.00,,---,0.00,VWS V14.01,2013-06-17 04:04:00,
2013-06-17 00:07:00,78.0,76.5,30.09,SE,135,0.0,5.0,95,0.00,,---,0.00,VWS V14.01,2013-06-17 04:07:00,
2013-06-17 00:12:00,78.0,76.5,30.09,SE,135,2.0,2.0,95,0.00,,---,0.00,VWS V14.01,2013-06-17 04:12:00,
2013-06-17 00:17:00,78.0,76.5,30.09,SE,135,1.0,4.0,95,0.00,,---,0.00,VWS V14.01,2013-06-17 04:17:00,
2013-06-17 00:22:00,78.0,76.5,30.09,ESE,112,2.0,7.0,95,0.00,,---,0.00,VWS V14.01,2013-06-17 04:22:00,
2013-06-17 00:27:00,78.0,76.5,30.09,ESE,112,0.0,2.0,95,0.00,,---,0.00,VWS V14.01,2013-06-17 04:27:00,
2013-06-17 00:32:00,78.0,76.5,30.09,ESE,112,0.0,2.0,95,0.00,,---,0.00,VWS V14.01,2013-06-17 04:32:00,
2013-06-17 00:37:00,78.0,76.1,30.08,ESE,112,0.0,0.0,94,0.00,,---,0.00,VWS V14.01,2013-06-17 04:37:00,
2013-06-17 00:42:00,78.0,76.1,30.08,ESE,112,0.0,3.0,94,0.00,,---,0.00,VWS V14.01,2013-06-17 04:42:00,
2013-06-17 00:47:00,78.0,76.1,30.09,ESE,112,0.0,3.0,94,0.00,,---,0.00,VWS V14.01,2013-06-17 04:47:00,
2013-06-17 00:52:00,78.0,76.5,30.09,ESE,112,0.0,2.0,95,0.00,,---,0.00,VWS V14.01,2013-06-17 04:52:00,
2013-06-17 00:57:00,78.0,76.5,30.09,ESE,112,0.0,2.0,95,0.00,,---,0.00,VWS V14.01,2013-06-17 04:57:00,
2013-06-17 01:02:00,78.0,76.5,30.09,ESE,112,4.0,5.0,95,0.00,,---,0.00,VWS V14.01,2013-06-17 05:02:00,
2013-06-17 01:07:00,78.0,76.5,30.09,ESE,112,2.0,2.0,95,0.00,,---,0.00,VWS V14.01,2013-06-17 05:07:00,
2013-06-17 01:12:00,78.0,76.5,30.09,ESE,112,1.0,1.0,95,0.00,,---,0.00,VWS V14.01,2013-06-17 05:12:00,
2013-06-17 01:17:00,78.0,76.5,30.08,ESE,112,0.0,2.0,95,0.00,,---,0.00,VWS V14.01,2013-06-17 05:17:00,
2013-06-17 01:22:00,78.0,76.1,30.08,ESE,112,0.0,1.0,94,0.00,,---,0.00,VWS V14.01,2013-06-17 05:22:00,
2013-06-17 01:27:00,78.0,75.8,30.08,ESE,112,1.0,2.0,93,0.00,,---,0.00,VWS V14.01,2013-06-17 05:27:00,
2013-06-17 01:32:00,78.0,75.8,30.08,ESE,112,0.0,1.0,93,0.00,,---,0.00,VWS V14.01,2013-06-17 05:32:00,
2013-06-17 01:37:00,78.0,75.8,30.07,ESE,112,0.0,0.0,93,0.00,,---,0.00,VWS V14.01,2013-06-17 05:37:00,
2013-06-17 01:42:00,78.0,75.5,30.07,ESE,112,0.0,0.0,92,0.00,,---,0.00,VWS V14.01,2013-06-17 05:42:00,
2013-06-17 01:47:00,78.0,75.2,30.06,ESE,112,0.0,0.0,91,0.00,,---,0.00,VWS V14.01,2013-06-17 05:47:00,
2013-06-17 01:52:00,78.0,74.5,30.06,SSW,202,0.0,0.0,89,0.00,,---,0.00,VWS V14.01,2013-06-17 05:52:00,
2013-06-17 01:57:00,78.0,74.8,30.06,SSW,202,0.0,0.0,90,0.00,,---,0.00,VWS V14.01,2013-06-17 05:57:00,
2013-06-17 02:02:00,78.0,74.8,30.06,SSW,202,0.0,0.0,90,0.00,,---,0.00,VWS V14.01,2013-06-17 06:02:00,
2013-06-17 02:07:00,77.0,73.2,30.06,SSW,202,0.0,0.0,88,0.00,,---,0.00,VWS V14.01,2013-06-17 06:07:00,
2013-06-17 02:12:00,77.0,73.2,30.06,SSW,202,0.0,0.0,88,0.00,,---,0.00,VWS V14.01,2013-06-17 06:12:00,
2013-06-17 02:17:00,77.0,73.5,30.05,SSW,202,0.0,0.0,89,0.00,,---,0.00,VWS V14.01,2013-06-17 06:17:00,
2013-06-17 02:22:00,77.0,73.8,30.05,SSW,202,0.0,0.0,90,0.00,,---,0.00,VWS V14.01,2013-06-17 06:22:00,
2013-06-17 02:27:00,77.0,73.8,30.05,SSW,202,0.0,5.0,90,0.00,,---,0.00,VWS V14.01,2013-06-17 06:27:00,
2013-06-17 02:32:00,77.0,73.8,30.05,SSW,202,0.0,0.0,90,0.00,,---,0.00,VWS V14.01,2013-06-17 06:32:00,
2013-06-17 02:37:00,77.0,73.8,30.05,SSW,202,0.0,0.0,90,0.00,,---,0.00,VWS V14.01,2013-06-17 06:37:00,
2013-06-17 02:42:00,77.0,73.8,30.05,SSW,202,0.0,0.0,90,0.00,,---,0.00,VWS V14.01,2013-06-17 06:42:00,
2013-06-17 02:47:00,77.0,73.5,30.05,SSW,202,0.0,0.0,89,0.00,,---,0.00,VWS V14.01,2013-06-17 06:47:00,
2013-06-17 02:52:00,77.0,73.8,30.05,SSW,202,0.0,0.0,90,0.00,,---,0.00,VWS V14.01,2013-06-17 06:52:00,
2013-06-17 02:57:00,77.0,73.8,30.04,SSW,202,0.0,0.0,90,0.00,,---,0.00,VWS V14.01,2013-06-17 06:57:00,
2013-06-17 03:02:00,77.0,73.5,30.04,SSW,202,0.0,0.0,89,0.00,,---,0.00,VWS V14.01,2013-06-17 07:02:00,
2013-06-17 03:07:00,77.0,73.8,30.03,SSW,202,0.0,0.0,90,0.00,,---,0.00,VWS V14.01,2013-06-17 07:07:00,
2013-06-17 03:12:00,76.0,72.9,30.03,SSW,202,0.0,0.0,90,0.00,,---,0.00,VWS V14.01,2013-06-17 07:12:00,
2013-06-17 03:17:00,76.0,72.2,30.03,SW,225,0.0,0.0,88,0.00,,---,0.00,VWS V14.01,2013-06-17 07:17:00,
2013-06-17 03:22:00,76.0,72.2,30.03,SW,225,0.0,0.0,88,0.00,,---,0.00,VWS V14.01,2013-06-17 07:22:00,
2013-06-17 03:27:00,76.0,71.5,30.04,SW,225,0.0,0.0,86,0.00,,---,0.00,VWS V14.01,2013-06-17 07:27:00,
2013-06-17 03:32:00,76.0,71.5,30.04,SW,225,0.0,0.0,86,0.00,,---,0.00,VWS V14.01,2013-06-17 07:32:00,
2013-06-17 03:37:00,76.0,71.9,30.05,SW,225,0.0,0.0,87,0.00,,---,0.00,VWS V14.01,2013-06-17 07:37:00,
2013-06-17 03:42:00,76.0,71.9,30.05,SW,225,0.0,0.0,87,0.00,,---,0.00,VWS V14.01,2013-06-17 07:42:00,
2013-06-17 03:47:00,76.0,71.9,30.05,SW,225,0.0,0.0,87,0.00,,---,0.00,VWS V14.01,2013-06-17 07:47:00,
2013-06-17 03:52:00,76.0,71.9,30.05,SW,225,0.0,0.0,87,0.00,,---,0.00,VWS V14.01,2013-06-17 07:52:00,
2013-06-17 03:57:00,76.0,72.2,30.05,SW,225,0.0,0.0,88,0.00,,---,0.00,VWS V14.01,2013-06-17 07:57:00,
2013-06-17 04:02:00,76.0,72.2,30.05,SW,225,0.0,0.0,88,0.00,,---,0.00,VWS V14.01,2013-06-17 08:02:00,
2013-06-17 04:07:00,76.0,72.2,30.06,SW,225,0.0,0.0,88,0.00,,---,0.00,VWS V14.01,2013-06-17 08:07:00,
2013-06-17 04:12:00,76.0,72.2,30.06,SW,225,0.0,0.0,88,0.00,,---,0.00,VWS V14.01,2013-06-17 08:12:00,
2013-06-17 04:17:00,76.0,71.9,30.06,SW,225,0.0,0.0,87,0.00,,---,0.00,VWS V14.01,2013-06-17 08:17:00,
2013-06-17 04:22:00,76.0,71.2,30.06,SW,225,0.0,0.0,85,0.00,,---,0.00,VWS V14.01,2013-06-17 08:22:00,
2013-06-17 04:27:00,76.0,71.2,30.06,SW,225,0.0,0.0,85,0.00,,---,0.00,VWS V14.01,2013-06-17 08:27:00,
2013-06-17 04:32:00,76.0,71.2,30.06,SW,225,0.0,0.0,85,0.00,,---,0.00,VWS V14.01,2013-06-17 08:32:00,
2013-06-17 04:37:00,75.0,70.2,30.05,SW,225,0.0,0.0,85,0.00,,---,0.00,VWS V14.01,2013-06-17 08:37:00,
2013-06-17 04:42:00,75.0,70.5,30.05,SW,225,0.0,0.0,86,0.00,,---,0.00,VWS V14.01,2013-06-17 08:42:00,
2013-06-17 04:47:00,75.0,70.5,30.05,SW,225,0.0,0.0,86,0.00,,---,0.00,VWS V14.01,2013-06-17 08:47:00,
2013-06-17 04:52:00,75.0,70.9,30.05,SW,225,0.0,0.0,87,0.00,,---,0.00,VWS V14.01,2013-06-17 08:52:00,
2013-06-17 04:57:00,75.0,70.9,30.05,SW,225,0.0,0.0,87,0.00,,---,0.00,VWS V14.01,2013-06-17 08:57:00,
2013-06-17 05:02:00,75.0,70.5,30.05,SW,225,0.0,0.0,86,0.00,,---,0.00,VWS V14.01,2013-06-17 09:02:00,
2013-06-17 05:07:00,75.0,70.9,30.05,SW,225,0.0,0.0,87,0.00,,---,0.00,VWS V14.01,2013-06-17 09:07:00,
2013-06-17 05:12:00,75.0,70.9,30.05,SW,225,0.0,0.0,87,0.00,,---,0.00,VWS V14.01,2013-06-17 09:12:00,
2013-06-17 05:17:00,74.0,69.9,30.05,SW,225,0.0,0.0,87,0.00,,---,0.00,VWS V14.01,2013-06-17 09:17:00,
2013-06-17 05:22:00,74.0,70.2,30.05,SW,225,0.0,0.0,88,0.00,,---,0.00,VWS V14.01,2013-06-17 09:22:00,
2013-06-17 05:27:00,74.0,70.2,30.06,SW,225,0.0,0.0,88,0.00,,---,0.00,VWS V14.01,2013-06-17 09:27:00,
2013-06-17 05:32:00,74.0,69.9,30.06,SW,225,0.0,0.0,87,0.00,,---,0.00,VWS V14.01,2013-06-17 09:32:00,
2013-06-17 05:37:00,74.0,69.9,30.07,SW,225,0.0,1.0,87,0.00,,---,0.00,VWS V14.01,2013-06-17 09:37:00,
2013-06-17 05:42:00,74.0,69.9,30.07,SE,135,0.0,0.0,87,0.00,,---,0.00,VWS V14.01,2013-06-17 09:42:00,
2013-06-17 05:47:00,74.0,69.6,30.07,SE,135,0.0,0.0,86,0.00,,---,0.00,VWS V14.01,2013-06-17 09:47:00,
2013-06-17 05:52:00,74.0,69.6,30.07,SE,135,0.0,0.0,86,0.00,,---,0.00,VWS V14.01,2013-06-17 09:52:00,
2013-06-17 05:57:00,73.0,68.9,30.06,SE,135,0.0,0.0,87,0.00,,---,0.00,VWS V14.01,2013-06-17 09:57:00,
2013-06-17 06:02:00,73.0,68.9,30.06,SE,135,0.0,0.0,87,0.00,,---,0.00,VWS V14.01,2013-06-17 10:02:00,
2013-06-17 06:07:00,73.0,68.6,30.07,SE,135,0.0,0.0,86,0.00,,---,0.00,VWS V14.01,2013-06-17 10:07:00,
2013-06-17 06:12:00,73.0,68.9,30.07,SE,135,0.0,0.0,87,0.00,,---,0.00,VWS V14.01,2013-06-17 10:12:00,
2013-06-17 06:17:00,73.0,68.9,30.06,SE,135,0.0,0.0,87,0.00,,---,0.00,VWS V14.01,2013-06-17 10:17:00,
2013-06-17 06:22:00,73.0,69.2,30.06,SE,135,0.0,0.0,88,0.00,,---,0.00,VWS V14.01,2013-06-17 10:22:00,
2013-06-17 06:27:00,72.0,68.3,30.06,SE,135,0.0,0.0,88,0.00,,---,0.00,VWS V14.01,2013-06-17 10:27:00,
2013-06-17 06:32:00,72.0,68.3,30.06,SE,135,0.0,0.0,88,0.00,,---,0.00,VWS V14.01,2013-06-17 10:32:00,
2013-06-17 06:37:00,72.0,67.9,30.06,SE,135,0.0,0.0,87,0.00,,---,0.00,VWS V14.01,2013-06-17 10:37:00,
2013-06-17 06:42:00,72.0,67.6,30.06,SE,135,0.0,0.0,86,0.00,,---,0.00,VWS V14.01,2013-06-17 10:42:00,
2013-06-17 06:47:00,72.0,67.6,30.05,SE,135,0.0,0.0,86,0.00,,---,0.00,VWS V14.01,2013-06-17 10:47:00,
2013-06-17 06:52:00,72.0,66.2,30.05,SE,135,0.0,0.0,82,0.00,,---,0.00,VWS V14.01,2013-06-17 10:52:00,
2013-06-17 06:57:00,72.0,65.5,30.06,SE,135,0.0,0.0,80,0.00,,---,0.00,VWS V14.01,2013-06-17 10:57:00,
2013-06-17 07:02:00,72.0,65.5,30.06,SE,135,0.0,0.0,80,0.00,,---,0.00,VWS V14.01,2013-06-17 11:02:00,
2013-06-17 07:07:00,72.0,65.1,30.07,SE,135,0.0,0.0,79,0.00,,---,0.00,VWS V14.01,2013-06-17 11:07:00,
2013-06-17 07:12:00,73.0,66.1,30.07,SE,135,0.0,0.0,79,0.00,,---,0.00,VWS V14.01,2013-06-17 11:12:00,
2013-06-17 07:17:00,73.0,65.7,30.06,SE,135,0.0,0.0,78,0.00,,---,0.00,VWS V14.01,2013-06-17 11:17:00,
2013-06-17 07:22:00,73.0,65.7,30.06,SE,135,0.0,0.0,78,0.00,,---,0.00,VWS V14.01,2013-06-17 11:22:00,
2013-06-17 07:27:00,73.0,65.7,30.06,SE,135,0.0,0.0,78,0.00,,---,0.00,VWS V14.01,2013-06-17 11:27:00,
2013-06-17 07:32:00,73.0,65.7,30.06,SE,135,0.0,0.0,78,0.00,,---,0.00,VWS V14.01,2013-06-17 11:32:00,
2013-06-17 07:37:00,74.0,66.7,30.06,SE,135,0.0,0.0,78,0.00,,---,0.00,VWS V14.01,2013-06-17 11:37:00,
2013-06-17 07:42:00,74.0,67.8,30.06,SE,135,0.0,0.0,81,0.00,,---,0.00,VWS V14.01,2013-06-17 11:42:00,
2013-06-17 07:47:00,74.0,68.5,30.06,SE,135,0.0,0.0,83,0.00,,---,0.00,VWS V14.01,2013-06-17 11:47:00,
2013-06-17 07:52:00,75.0,70.5,30.06,SE,135,0.0,0.0,86,0.00,,---,0.00,VWS V14.01,2013-06-17 11:52:00,
2013-06-17 07:57:00,75.0,70.2,30.06,SW,225,2.0,3.0,85,0.00,,---,0.00,VWS V14.01,2013-06-17 11:57:00,
2013-06-17 08:02:00,76.0,71.2,30.06,SW,225,0.0,2.0,85,0.00,,---,0.00,VWS V14.01,2013-06-17 12:02:00,
2013-06-17 08:07:00,76.0,70.1,30.06,SW,225,0.0,3.0,82,0.00,,---,0.00,VWS V14.01,2013-06-17 12:07:00,
2013-06-17 08:12:00,76.0,68.7,30.06,SW,225,0.0,0.0,78,0.00,,---,0.00,VWS V14.01,2013-06-17 12:12:00,
2013-06-17 08:17:00,76.0,69.8,30.07,SE,135,0.0,0.0,81,0.00,,---,0.00,VWS V14.01,2013-06-17 12:17:00,
2013-06-17 08:22:00,77.0,72.5,30.07,South,180,1.0,1.0,86,0.00,,---,0.00,VWS V14.01,2013-06-17 12:22:00,
2013-06-17 08:27:00,77.0,72.8,30.07,South,180,0.0,0.0,87,0.00,,---,0.00,VWS V14.01,2013-06-17 12:27:00,
2013-06-17 08:32:00,77.0,76.1,30.07,SE,135,3.0,3.0,97,0.00,,---,0.00,VWS V14.01,2013-06-17 12:32:00,
2013-06-17 08:37:00,78.0,77.4,30.07,SSW,202,0.0,0.0,98,0.00,,---,0.00,VWS V14.01,2013-06-17 12:37:00,
2013-06-17 08:42:00,78.0,78.0,30.07,SSW,202,2.0,4.0,100,0.00,,---,0.00,VWS V14.01,2013-06-17 12:42:00,
2013-06-17 08:47:00,79.0,79.0,30.07,SSW,202,2.0,3.0,100,0.00,,---,0.00,VWS V14.01,2013-06-17 12:47:00,
2013-06-17 08:52:00,79.0,79.0,30.07,SE,135,0.0,1.0,100,0.00,,---,0.00,VWS V14.01,2013-06-17 12:52:00,
2013-06-17 08:57:00,80.0,80.0,30.07,ESE,112,3.0,4.0,100,0.00,,---,0.00,VWS V14.01,2013-06-17 12:57:00,
2013-06-17 09:02:00,80.0,80.0,30.07,ESE,112,0.0,1.0,100,0.00,,---,0.00,VWS V14.01,2013-06-17 13:02:00,
2013-06-17 09:07:00,80.0,79.4,30.07,SSE,157,0.0,4.0,98,0.00,,---,0.00,VWS V14.01,2013-06-17 13:07:00,
2013-06-17 09:12:00,80.0,79.1,30.07,SSE,157,0.0,0.0,97,0.00,,---,0.00,VWS V14.01,2013-06-17 13:12:00,
2013-06-17 09:17:00,80.0,79.1,30.06,SSE,157,0.0,1.0,97,0.00,,---,0.00,VWS V14.01,2013-06-17 13:17:00,
2013-06-17 09:22:00,81.0,80.1,30.06,SSE,157,0.0,0.0,97,0.00,,---,0.00,VWS V14.01,2013-06-17 13:22:00,
2013-06-17 09:27:00,81.0,79.8,30.06,SSE,157,0.0,0.0,96,0.00,,---,0.00,VWS V14.01,2013-06-17 13:27:00,
2013-06-17 09:32:00,81.0,79.1,30.06,SSE,157,0.0,3.0,94,0.00,,---,0.00,VWS V14.01,2013-06-17 13:32:00,
2013-06-17 09:37:00,81.0,78.1,30.06,South,180,0.0,4.0,91,0.00,,---,0.00,VWS V14.01,2013-06-17 13:37:00,
2013-06-17 09:42:00,82.0,78.4,30.06,ESE,112,1.0,3.0,89,0.00,,---,0.00,VWS V14.01,2013-06-17 13:42:00,
2013-06-17 09:47:00,82.0,78.4,30.05,SE,135,0.0,2.0,89,0.00,,---,0.00,VWS V14.01,2013-06-17 13:47:00,
2013-06-17 09:52:00,83.0,78.7,30.05,South,180,0.0,1.0,87,0.00,,---,0.00,VWS V14.01,2013-06-17 13:52:00,
2013-06-17 09:57:00,83.0,76.6,30.05,East,90,0.0,3.0,81,0.00,,---,0.00,VWS V14.01,2013-06-17 13:57:00,
2013-06-17 10:02:00,83.0,76.6,30.05,SW,225,1.0,3.0,81,0.00,,---,0.00,VWS V14.01,2013-06-17 14:02:00,
2013-06-17 10:07:00,84.0,76.8,30.04,SW,225,1.0,3.0,79,0.00,,---,0.00,VWS V14.01,2013-06-17 14:07:00,
2013-06-17 10:12:00,84.0,77.5,30.04,SW,225,0.0,1.0,81,0.00,,---,0.00,VWS V14.01,2013-06-17 14:12:00,
2013-06-17 10:17:00,84.0,77.2,30.04,WSW,247,0.0,0.0,80,0.00,,---,0.00,VWS V14.01,2013-06-17 14:17:00,
2013-06-17 10:22:00,84.0,77.2,30.04,North,360,0.0,3.0,80,0.00,,---,0.00,VWS V14.01,2013-06-17 14:22:00,
2013-06-17 10:27:00,85.0,78.1,30.04,North,360,0.0,0.0,80,0.00,,---,0.00,VWS V14.01,2013-06-17 14:27:00,
2013-06-17 10:32:00,86.0,77.9,30.04,SSW,202,3.0,6.0,77,0.00,,---,0.00,VWS V14.01,2013-06-17 14:32:00,
2013-06-17 10:37:00,86.0,76.3,30.04,West,270,1.0,4.0,73,0.00,,---,0.00,VWS V14.01,2013-06-17 14:37:00,
2013-06-17 10:42:00,86.0,77.2,30.04,WSW,247,0.0,6.0,75,0.00,,---,0.00,VWS V14.01,2013-06-17 14:42:00,
2013-06-17 10:47:00,86.0,77.6,30.03,SE,135,2.0,3.0,76,0.00,,---,0.00,VWS V14.01,2013-06-17 14:47:00,
2013-06-17 10:52:00,87.0,77.3,30.03,SW,225,0.0,4.0,73,0.00,,---,0.00,VWS V14.01,2013-06-17 14:52:00,
2013-06-17 10:57:00,87.0,76.9,30.03,ESE,112,1.0,6.0,72,0.00,,---,0.00,VWS V14.01,2013-06-17 14:57:00,
2013-06-17 11:02:00,88.0,75.7,30.03,SE,135,0.0,3.0,67,0.00,,---,0.00,VWS V14.01,2013-06-17 15:02:00,
2013-06-17 11:07:00,88.0,75.7,30.03,SE,135,0.0,8.0,67,0.00,,---,0.00,VWS V14.01,2013-06-17 15:07:00,
2013-06-17 11:12:00,88.0,74.3,30.03,SE,135,1.0,3.0,64,0.00,,---,0.00,VWS V14.01,2013-06-17 15:12:00,
2013-06-17 11:17:00,89.0,77.1,30.03,SW,225,2.0,3.0,68,0.00,,---,0.00,VWS V14.01,2013-06-17 15:17:00,
2013-06-17 11:22:00,89.0,75.7,30.03,SW,225,2.0,5.0,65,0.00,,---,0.00,VWS V14.01,2013-06-17 15:22:00,
2013-06-17 11:27:00,89.0,76.6,30.03,WSW,247,0.0,6.0,67,0.00,,---,0.00,VWS V14.01,2013-06-17 15:27:00,
2013-06-17 11:32:00,89.0,76.6,30.03,SW,225,3.0,4.0,67,0.00,,---,0.00,VWS V14.01,2013-06-17 15:32:00,
2013-06-17 11:37:00,89.0,76.6,30.03,SE,135,2.0,4.0,67,0.00,,---,0.00,VWS V14.01,2013-06-17 15:37:00,
2013-06-17 11:42:00,89.0,75.7,30.03,SE,135,4.0,4.0,65,0.00,,---,0.00,VWS V14.01,2013-06-17 15:42:00,
2013-06-17 11:47:00,89.0,75.7,30.03,SE,135,1.0,1.0,65,0.00,,---,0.00,VWS V14.01,2013-06-17 15:47:00,
2013-06-17 11:52:00,90.0,74.8,30.03,South,180,1.0,5.0,61,0.00,,---,0.00,VWS V14.01,2013-06-17 15:52:00,
2013-06-17 11:57:00,90.0,75.2,30.03,SE,135,0.0,7.0,62,0.00,,---,0.00,VWS V14.01,2013-06-17 15:57:00,
2013-06-17 12:02:00,90.0,73.8,30.03,SE,135,4.0,4.0,59,0.00,,---,0.00,VWS V14.01,2013-06-17 16:02:00,
2013-06-17 12:07:00,90.0,74.8,30.02,SE,135,0.0,2.0,61,0.00,,---,0.00,VWS V14.01,2013-06-17 16:07:00,
2013-06-17 12:12:00,90.0,75.2,30.02,SE,135,2.0,6.0,62,0.00,,---,0.00,VWS V14.01,2013-06-17 16:12:00,
2013-06-17 12:17:00,90.0,75.2,30.02,WNW,292,2.0,2.0,62,0.00,,---,0.00,VWS V14.01,2013-06-17 16:17:00,
2013-06-17 12:22:00,91.0,75.7,30.02,WSW,247,5.0,5.0,61,0.00,,---,0.00,VWS V14.01,2013-06-17 16:22:00,
2013-06-17 12:27:00,91.0,73.7,30.01,West,270,1.0,3.0,57,0.00,,---,0.00,VWS V14.01,2013-06-17 16:27:00,
2013-06-17 12:32:00,91.0,72.6,30.01,SE,135,3.0,7.0,55,0.00,,---,0.00,VWS V14.01,2013-06-17 16:32:00,
2013-06-17 12:37:00,91.0,74.7,30.01,SW,225,0.0,5.0,59,0.00,,---,0.00,VWS V14.01,2013-06-17 16:37:00,
2013-06-17 12:42:00,91.0,73.1,30.01,SW,225,0.0,0.0,56,0.00,,---,0.00,VWS V14.01,2013-06-17 16:42:00,
2013-06-17 12:47:00,92.0,73.0,30.01,SE,135,1.0,4.0,54,0.00,,---,0.00,VWS V14.01,2013-06-17 16:47:00,
2013-06-17 12:52:00,92.0,71.9,30.01,ESE,112,1.0,4.0,52,0.00,,---,0.00,VWS V14.01,2013-06-17 16:52:00,
2013-06-17 12:57:00,92.0,73.0,30.00,East,90,0.0,4.0,54,0.00,,---,0.00,VWS V14.01,2013-06-17 16:57:00,
2013-06-17 13:02:00,92.0,73.0,30.00,WSW,247,0.0,1.0,54,0.00,,---,0.00,VWS V14.01,2013-06-17 17:02:00,
2013-06-17 13:07:00,92.0,71.9,30.00,South,180,1.0,4.0,52,0.00,,---,0.00,VWS V14.01,2013-06-17 17:07:00,
2013-06-17 13:12:00,93.0,72.2,30.00,West,270,0.0,4.0,51,0.00,,---,0.00,VWS V14.01,2013-06-17 17:12:00,
2013-06-17 13:17:00,93.0,73.9,29.99,SW,225,1.0,4.0,54,0.00,,---,0.00,VWS V14.01,2013-06-17 17:17:00,
2013-06-17 13:22:00,93.0,72.2,29.99,SW,225,0.0,1.0,51,0.00,,---,0.00,VWS V14.01,2013-06-17 17:22:00,
2013-06-17 13:27:00,94.0,73.7,29.99,WSW,247,0.0,1.0,52,0.00,,---,0.00,VWS V14.01,2013-06-17 17:27:00,
2013-06-17 13:32:00,94.0,73.1,29.99,South,180,0.0,3.0,51,0.00,,---,0.00,VWS V14.01,2013-06-17 17:32:00,
2013-06-17 13:37:00,94.0,73.1,29.99,SW,225,0.0,4.0,51,0.00,,---,0.00,VWS V14.01,2013-06-17 17:37:00,
2013-06-17 13:42:00,94.0,71.3,29.99,SSW,202,2.0,6.0,48,0.00,,---,0.00,VWS V14.01,2013-06-17 17:42:00,
2013-06-17 13:47:00,95.0,72.9,29.98,South,180,0.0,0.0,49,0.00,,---,0.00,VWS V14.01,2013-06-17 17:47:00,
2013-06-17 13:52:00,94.0,70.1,29.98,SSE,157,2.0,6.0,46,0.00,,---,0.00,VWS V14.01,2013-06-17 17:52:00,
2013-06-17 13:57:00,95.0,71.0,29.98,SW,225,0.0,5.0,46,0.00,,---,0.00,VWS V14.01,2013-06-17 17:57:00,
2013-06-17 14:02:00,95.0,69.7,29.98,WNW,292,0.0,3.0,44,0.00,,---,0.00,VWS V14.01,2013-06-17 18:02:00,
2013-06-17 14:07:00,96.0,72.5,29.97,SSW,202,2.0,4.0,47,0.00,,---,0.00,VWS V14.01,2013-06-17 18:07:00,
2013-06-17 14:12:00,96.0,72.5,29.97,SW,225,2.0,4.0,47,0.00,,---,0.00,VWS V14.01,2013-06-17 18:12:00,
2013-06-17 14:17:00,96.0,71.9,29.97,ESE,112,5.0,5.0,46,0.00,,---,0.00,VWS V14.01,2013-06-17 18:17:00,
2013-06-17 14:22:00,96.0,73.2,29.97,SSE,157,3.0,3.0,48,0.00,,---,0.00,VWS V14.01,2013-06-17 18:22:00,
2013-06-17 14:27:00,97.0,76.5,29.97,East,90,0.0,7.0,52,0.00,,---,0.00,VWS V14.01,2013-06-17 18:27:00,
2013-06-17 14:32:00,96.0,78.8,29.97,East,90,2.0,5.0,58,0.00,,---,0.00,VWS V14.01,2013-06-17 18:32:00,
2013-06-17 14:37:00,96.0,69.9,29.96,South,180,0.0,3.0,43,0.00,,---,0.00,VWS V14.01,2013-06-17 18:37:00,
2013-06-17 14:42:00,96.0,77.8,29.96,SSE,157,0.0,6.0,56,0.00,,---,0.00,VWS V14.01,2013-06-17 18:42:00,
2013-06-17 14:47:00,94.0,76.5,29.97,East,90,5.0,5.0,57,0.00,,---,0.00,VWS V14.01,2013-06-17 18:47:00,
2013-06-17 14:52:00,93.0,77.1,29.97,ESE,112,6.0,7.0,60,0.00,,---,0.00,VWS V14.01,2013-06-17 18:52:00,
2013-06-17 14:57:00,92.0,76.6,29.97,SE,135,2.0,6.0,61,0.00,,---,0.00,VWS V14.01,2013-06-17 18:57:00,
2013-06-17 15:02:00,91.0,76.7,29.97,East,90,7.0,7.0,63,0.00,,---,0.00,VWS V14.01,2013-06-17 19:02:00,
2013-06-17 15:07:00,90.0,78.9,29.98,East,90,4.0,6.0,70,0.00,,---,0.00,VWS V14.01,2013-06-17 19:07:00,
2013-06-17 16:16:00,87.0,80.1,29.97,South,180,0.0,4.0,80,0.00,,---,0.00,VWS V14.01,2013-06-17 20:16:00,
2013-06-17 16:22:00,86.0,77.9,29.97,East,90,8.0,9.0,77,0.00,,---,0.00,VWS V14.01,2013-06-17 20:22:00,
2013-06-17 17:48:00,84.0,78.7,29.97,SW,225,0.0,2.0,84,0.00,,---,0.00,VWS V14.01,2013-06-17 21:48:00,
2013-06-17 17:54:00,85.0,78.9,29.97,East,90,1.0,3.0,82,0.00,,---,0.00,VWS V14.01,2013-06-17 21:54:00,
2013-06-17 17:59:00,85.0,79.3,29.97,East,90,2.0,7.0,83,0.00,,---,0.00,VWS V14.01,2013-06-17 21:59:00,
2013-06-17 18:04:00,85.0,78.9,29.97,South,180,2.0,4.0,82,0.00,,---,0.00,VWS V14.01,2013-06-17 22:04:00,
2013-06-17 18:09:00,85.0,79.3,29.97,SW,225,0.0,8.0,83,0.00,,---,0.00,VWS V14.01,2013-06-17 22:09:00,
2013-06-17 18:14:00,85.0,79.6,29.97,East,90,6.0,6.0,84,0.00,,---,0.00,VWS V14.01,2013-06-17 22:14:00,
2013-06-17 18:19:00,85.0,79.6,29.97,West,270,0.0,2.0,84,0.00,,---,0.00,VWS V14.01,2013-06-17 22:19:00,
2013-06-17 18:24:00,85.0,78.9,29.97,East,90,2.0,6.0,82,0.00,,---,0.00,VWS V14.01,2013-06-17 22:24:00,
2013-06-17 18:29:00,85.0,79.6,29.97,NW,315,0.0,5.0,84,0.00,,---,0.00,VWS V14.01,2013-06-17 22:29:00,
2013-06-17 18:34:00,85.0,79.6,29.97,SE,135,2.0,5.0,84,0.00,,---,0.00,VWS V14.01,2013-06-17 22:34:00,
2013-06-17 18:39:00,84.0,78.7,29.97,East,90,1.0,2.0,84,0.00,,---,0.00,VWS V14.01,2013-06-17 22:39:00,
2013-06-17 18:44:00,84.0,78.7,29.98,East,90,2.0,7.0,84,0.00,,---,0.00,VWS V14.01,2013-06-17 22:44:00,
2013-06-17 18:49:00,84.0,79.4,29.98,ESE,112,0.0,5.0,86,0.00,,---,0.00,VWS V14.01,2013-06-17 22:49:00,
2013-06-17 18:54:00,84.0,79.4,29.98,East,90,6.0,6.0,86,0.00,,---,0.00,VWS V14.01,2013-06-17 22:54:00,
2013-06-17 18:59:00,84.0,80.1,29.98,SE,135,0.0,3.0,88,0.00,,---,0.00,VWS V14.01,2013-06-17 22:59:00,
2013-06-17 19:04:00,84.0,80.1,29.98,SSW,202,0.0,2.0,88,0.00,,---,0.00,VWS V14.01,2013-06-17 23:04:00,
2013-06-17 19:09:00,84.0,80.1,29.98,ESE,112,4.0,6.0,88,0.00,,---,0.00,VWS V14.01,2013-06-17 23:09:00,
2013-06-17 19:14:00,84.0,80.1,29.98,ESE,112,4.0,6.0,88,0.00,,---,0.00,VWS V14.01,2013-06-17 23:14:00,
2013-06-17 19:19:00,84.0,80.1,29.98,ESE,112,1.0,4.0,88,0.00,,---,0.00,VWS V14.01,2013-06-17 23:19:00,
2013-06-17 19:24:00,84.0,80.1,29.97,SE,135,0.0,8.0,88,0.00,,---,0.00,VWS V14.01,2013-06-17 23:24:00,
2013-06-17 19:29:00,84.0,80.4,29.97,ESE,112,2.0,4.0,89,0.00,,---,0.00,VWS V14.01,2013-06-17 23:29:00,
2013-06-17 19:34:00,84.0,80.1,29.97,ESE,112,3.0,3.0,88,0.00,,---,0.00,VWS V14.01,2013-06-17 23:34:00,
2013-06-17 19:39:00,83.0,78.7,29.97,ESE,112,2.0,5.0,87,0.00,,---,0.00,VWS V14.01,2013-06-17 23:39:00,
2013-06-17 19:44:00,83.0,78.7,29.98,ESE,112,2.0,3.0,87,0.00,,---,0.00,VWS V14.01,2013-06-17 23:44:00,
2013-06-17 19:49:00,83.0,79.1,29.98,SE,135,0.0,3.0,88,0.00,,---,0.00,VWS V14.01,2013-06-17 23:49:00,
2013-06-17 19:54:00,83.0,79.1,29.99,SE,135,0.0,3.0,88,0.00,,---,0.00,VWS V14.01,2013-06-17 23:54:00,
2013-06-17 19:59:00,82.0,78.8,29.99,SW,225,0.0,0.0,90,0.00,,---,0.00,VWS V14.01,2013-06-17 23:59:00,
2013-06-17 20:04:00,82.0,78.8,29.99,SE,135,3.0,5.0,90,0.00,,---,0.00,VWS V14.01,2013-06-18 00:04:00,
2013-06-17 20:09:00,82.0,79.1,29.99,SE,135,0.0,0.0,91,0.00,,---,0.00,VWS V14.01,2013-06-18 00:09:00,
2013-06-17 20:14:00,82.0,79.1,29.99,SE,135,0.0,2.0,91,0.00,,---,0.00,VWS V14.01,2013-06-18 00:14:00,
2013-06-17 20:19:00,81.0,78.8,29.99,SE,135,1.0,2.0,93,0.00,,---,0.00,VWS V14.01,2013-06-18 00:19:00,
2013-06-17 20:24:00,81.0,78.5,29.99,SE,135,1.0,1.0,92,0.00,,---,0.00,VWS V14.01,2013-06-18 00:24:00,
2013-06-17 20:29:00,81.0,79.4,29.99,SE,135,0.0,1.0,95,0.00,,---,0.00,VWS V14.01,2013-06-18 00:29:00,
2013-06-17 20:34:00,81.0,79.1,29.99,SE,135,4.0,4.0,94,0.00,,---,0.00,VWS V14.01,2013-06-18 00:34:00,
2013-06-17 20:39:00,80.0,78.8,29.99,SE,135,0.0,0.0,96,0.00,,---,0.00,VWS V14.01,2013-06-18 00:39:00,
2013-06-17 20:44:00,80.0,78.8,30.00,SE,135,4.0,4.0,96,0.00,,---,0.00,VWS V14.01,2013-06-18 00:44:00,
2013-06-17 20:49:00,80.0,79.1,30.00,SSE,157,0.0,0.0,97,0.00,,---,0.00,VWS V14.01,2013-06-18 00:49:00,
2013-06-17 20:54:00,80.0,79.1,30.01,SE,135,0.0,0.0,97,0.00,,---,0.00,VWS V14.01,2013-06-18 00:54:00,
2013-06-17 20:59:00,80.0,79.1,30.01,SE,135,1.0,2.0,97,0.00,,---,0.00,VWS V14.01,2013-06-18 00:59:00,
2013-06-17 21:04:00,80.0,79.1,30.01,South,180,0.0,0.0,97,0.00,,---,0.00,VWS V14.01,2013-06-18 01:04:00,
2013-06-17 21:09:00,79.0,78.4,30.01,South,180,0.0,0.0,98,0.00,,---,0.00,VWS V14.01,2013-06-18 01:09:00,
2013-06-17 21:14:00,79.0,78.1,30.02,South,180,0.0,0.0,97,0.00,,---,0.00,VWS V14.01,2013-06-18 01:14:00,
2013-06-17 21:19:00,79.0,78.4,30.02,South,180,0.0,2.0,98,0.00,,---,0.00,VWS V14.01,2013-06-18 01:19:00,
2013-06-17 21:24:00,79.0,78.4,30.02,South,180,0.0,0.0,98,0.00,,---,0.00,VWS V14.01,2013-06-18 01:24:00,
2013-06-17 21:29:00,78.0,77.4,30.02,South,180,0.0,0.0,98,0.00,,---,0.00,VWS V14.01,2013-06-18 01:29:00,
2013-06-17 21:34:00,79.0,78.4,30.03,South,180,0.0,0.0,98,0.00,,---,0.00,VWS V14.01,2013-06-18 01:34:00,
2013-06-17 21:39:00,78.0,77.4,30.03,South,180,0.0,0.0,98,0.00,,---,0.00,VWS V14.01,2013-06-18 01:39:00,
2013-06-17 21:44:00,78.0,77.4,30.03,South,180,0.0,0.0,98,0.00,,---,0.00,VWS V14.01,2013-06-18 01:44:00,
2013-06-17 21:49:00,78.0,77.4,30.03,South,180,0.0,0.0,98,0.00,,---,0.00,VWS V14.01,2013-06-18 01:49:00,
2013-06-17 21:54:00,78.0,77.4,30.04,South,180,0.0,0.0,98,0.00,,---,0.00,VWS V14.01,2013-06-18 01:54:00,
2013-06-17 21:59:00,78.0,77.7,30.04,South,180,0.0,0.0,99,0.00,,---,0.00,VWS V14.01,2013-06-18 01:59:00,
2013-06-17 22:04:00,78.0,77.4,30.04,South,180,0.0,0.0,98,0.00,,---,0.00,VWS V14.01,2013-06-18 02:04:00,
2013-06-17 22:09:00,77.0,76.4,30.04,South,180,0.0,0.0,98,0.00,,---,0.00,VWS V14.01,2013-06-18 02:09:00,
2013-06-17 22:14:00,77.0,76.4,30.04,South,180,0.0,0.0,98,0.00,,---,0.00,VWS V14.01,2013-06-18 02:14:00,
2013-06-17 22:19:00,77.0,76.4,30.04,South,180,0.0,0.0,98,0.00,,---,0.00,VWS V14.01,2013-06-18 02:19:00,
2013-06-17 22:24:00,77.0,76.4,30.05,South,180,0.0,0.0,98,0.00,,---,0.00,VWS V14.01,2013-06-18 02:24:00,
2013-06-17 22:29:00,77.0,76.4,30.05,South,180,0.0,0.0,98,0.00,,---,0.00,VWS V14.01,2013-06-18 02:29:00,
2013-06-17 22:34:00,77.0,76.4,30.05,South,180,0.0,0.0,98,0.00,,---,0.00,VWS V14.01,2013-06-18 02:34:00,
2013-06-17 22:39:00,77.0,76.1,30.05,South,180,0.0,0.0,97,0.00,,---,0.00,VWS V14.01,2013-06-18 02:39:00,
2013-06-17 22:44:00,78.0,77.4,30.05,ESE,112,1.0,2.0,98,0.00,,---,0.00,VWS V14.01,2013-06-18 02:44:00,
2013-06-17 22:49:00,77.0,76.4,30.05,ESE,112,1.0,1.0,98,0.00,,---,0.00,VWS V14.01,2013-06-18 02:49:00,
2013-06-17 22:54:00,78.0,77.4,30.05,ESE,112,0.0,0.0,98,0.00,,---,0.00,VWS V14.01,2013-06-18 02:54:00,
2013-06-17 22:59:00,78.0,77.4,30.05,South,180,0.0,2.0,98,0.00,,---,0.00,VWS V14.01,2013-06-18 02:59:00,
2013-06-17 23:04:00,78.0,77.4,30.05,South,180,0.0,0.0,98,0.00,,---,0.00,VWS V14.01,2013-06-18 03:04:00,
2013-06-17 23:09:00,78.0,77.4,30.05,SE,135,0.0,3.0,98,0.00,,---,0.00,VWS V14.01,2013-06-18 03:09:00,
2013-06-17 23:14:00,78.0,77.4,30.05,SSW,202,0.0,0.0,98,0.00,,---,0.00,VWS V14.01,2013-06-18 03:14:00,
2013-06-17 23:19:00,78.0,77.4,30.05,SE,135,1.0,2.0,98,0.00,,---,0.00,VWS V14.01,2013-06-18 03:19:00,
2013-06-17 23:24:00,78.0,77.4,30.04,SSW,202,0.0,1.0,98,0.00,,---,0.00,VWS V14.01,2013-06-18 03:24:00,
2013-06-17 23:29:00,78.0,77.4,30.04,NNE,22,0.0,1.0,98,0.00,,---,0.00,VWS V14.01,2013-06-18 03:29:00,
2013-06-17 23:34:00,78.0,77.4,30.04,SE,135,4.0,4.0,98,0.00,,---,0.00,VWS V14.01,2013-06-18 03:34:00,
2013-06-17 23:39:00,78.0,77.4,30.04,ESE,112,0.0,1.0,98,0.00,,---,0.00,VWS V14.01,2013-06-18 03:39:00,
2013-06-17 23:44:00,78.0,77.4,30.05,NE,45,0.0,0.0,98,0.00,,---,0.00,VWS V14.01,2013-06-18 03:44:00,
2013-06-17 23:49:00,78.0,77.4,30.05,NE,45,0.0,0.0,98,0.00,,---,0.00,VWS V14.01,2013-06-18 03:49:00,
2013-06-17 23:54:00,78.0,77.4,30.07,NE,45,0.0,0.0,98,0.00,,---,0.00,VWS V14.01,2013-06-18 03:54:00,
2013-06-17 23:59:00,78.0,77.4,30.07,East,90,1.0,1.0,98,0.00,,---,0.00,VWS V14.01,2013-06-18 03:59:00,